[Date Prev][Date Next][Thread Prev][Thread Next][Date Index][Thread Index]

[jamsat-news:1670] jas2info #265



========================   最新情報   ==============================

        Last updated  01Mar2002  19:00(JST)   #265 

====================================================================
   
1)アマチュア通信衛星情報、FOシリーズの軌道要素、テレメトリ、QSOの
   状況等をまとめてみました.
   
 FO−29の2002年3月1日(金)の18:14(JST)のパスでは
JARLのホームページのとうりアナログ運用でした。 今日までの観測した
テレメトリーと最終の分析結果を報告しておきます。

AS27343C  01Mar2002
18:14-18:31(JST)
AOS   MEL  LOS  Elev
 23    99  174  38.9
Freq. 435.803-.785MHz 

HI HI AE C7 88 55 00 D4 E5 17 09 05 56 1F 6D 5F 90 8E B0 7A 85 82 85 87 80 
HI HI AE C7 88 55 00 D4 E5 17 09 05 46 2A 74 5F 90 8E B0 64 85 82 85 87 80 
HI HI AE C7 88 55 00 D4 E5 17 09 05 3B 38 75 5F 90 8E B0 78 85 82 85 87 80 
HI HI AE C7 88 55 00 D4 E5 17 09 05 34 49 73 5F 90 8E B0 76 86 82 85 88 80
HI HI AE C7 88 55 00 D4 E5 17 09 05 31 5A 6E 5F 90 8E B0 95 86 82 85 88 80 
HI HI AE C7 88 55 00 D4 E5 17 09 05 33 69 6C 5F 90 8E B0 7F 86 82 85 88 80 
HI HI AE C7 88 55 00 D4 B2 96 09 08 38 75 6F 5F 90 8E B0 59 86 82 85 88 80 
HI HI AE C7 88 55 00 D4 B2 96 09 08 3E 7E 72 5F 90 8E B0 7B 86 82 85 88 80 
HI HI AE C7 88 55 00 D4 B2 96 09 08 45 85 72 5F 90 8E B0 78 86 82 85 88 80 
HI HI AE C7 88 55 00 D4 B2 96 09 08 4C 88 71 5F 90 8E B0 6F 86 82 85 88 80 
HI HI AE C7 88 55 00 D4 B2 96 09 08 51 8A 6C 5F 90 8E B0 6A 86 82 85 88 80 
HI HI AE C7 88 55 00 D4 B2 96 09 08 56 8A 62 5E 90 8E B0 73 86 81 85 88 80 
HI HI AE C7 88 55 00 D4 B2 96 09 08 58 8A 59 5F 90 8E AF 63 86 81 85 88 80 
HI HI AE C7 88 55 00 D4 B2 96 09 08 5B 8B 54 5F 8F 8D AD 71 86 81 85 88 80 
HI HI AE C7 88 55 00 D4 B2 96 09 08 5D 8C 50 61 8F 8D A8 77 86 81 85 88 80 
HI HI AE C7 88 55 00 D4 B2 96 09 08 60 8E 52 60 8E 8D AB 5B 86 81 85 88 80 
HI HI AE C7 88 55 00 D4 B2 96 09 08 63 91 56 5E 8F 8C B0 9D 66 81 85 88 82 
HI HI AE C7 88 55 00 D4 B2 96 09 08 68 94 5A 5E 8F 8D B0 6D 86 81 85 88 80 
HI HI AE C7 88 55 00 D4 B2 96 09 08 6F 96 65 5E 8F 8D B0 6B 86 81 85 88 80 
HI HI AE C7 88 55 00 D4 B2 96 09 08 76 96 6E 5E 8F 8D B0 75 86 81 86 88 80 
HI HI AE C7 88 55 00 D4 B2 96 09 08 7E 93 74 5E 8F 8D B0 51 86 81 85 89 80

AS27330C  28Feb2002
19:08-19:26(JST)
AOS   MEL  LOS  Elev
 10   281  199  76.6
Freq. 435.804-.785MHz  

HI HI AE C7 88 55 00 D4 45 CD 09 4F 34 82 5F 5F 90 8E AF 79 87 85 87 87 82 
HI HI AE C7 88 55 00 D4 45 CD 09 4F 32 6C 6C 5F 90 8E B0 74 87 85 87 87 82 
HI HI AE C7 88 55 00 D4 45 CD 09 4F 34 57 75 5F 90 8E B0 72 86 85 87 86 82 
HI HI AE C7 88 55 00 D4 45 CD 09 4F 39 44 76 5F 8F 8E B0 7A 86 85 87 87 82 
HI HI AE C7 88 55 00 D4 45 CD 09 4F 40 34 78 5E 90 8E B0 73 86 85 87 86 82 
HI HI AE C7 88 55 00 D4 45 CD 09 4F 4A 2A 76 5F 90 8E B0 7D 86 85 87 86 82 
HI HI AE C7 88 55 00 D4 45 CD 09 4F 53 24 72 5F 90 8E B0 52 86 85 87 86 82 
HI HI AE C7 88 55 00 D4 45 CD 09 4F 5C 23 68 5F 90 8E B0 66 86 85 87 86 82 
HI HI AE C7 88 55 00 D4 45 CD 09 4F 64 26 5F 5F 90 8E B0 7C 86 85 87 86 82 
HI HI AE C7 88 55 00 D4 45 CD 09 4F 69 2D 58 5F 90 8E B0 78 86 85 87 86 82 
HI HI AE C7 88 55 00 D4 45 CD 09 4F 6B 35 51 60 8F 8D AC C8 87 85 87 86 82 
HI HI AE C7 88 55 00 D4 45 CD 09 4F 6C 3E 53 60 8F 8D AB 65 87 85 87 86 82 
HI HI AE C7 88 55 00 D4 45 CD 09 4F 6A 4D 4F 62 8F 8D A6 6D 87 86 87 86 82 
HI HI AE C7 88 55 00 D4 45 CD 09 4F 6D                      87 86 87 86 82   
HI HI AE C7 88 55 00 D4 45 CD 09 4F 59 53 5E 5F 90 8E B0 7D 87 86 87 86 82 
HI HI AE C7 88 55 00 D4 45 CD 09 4F 59 50 65 5F 90 8E B0 62 87 86 87 86 82 
HI HI AE C7 88 55 00 D4 45 CD 09 4F 5A 4C 6C 5F 90 8E B0 5B 87 86 87 86 82 
HI HI AE C7 88 55 00 D4 45 CD 09 4F 5F 48 71 5F 90 8E B0 68 87 86 87 86 82 
EI HI AE C7 88 55 00 D4 45 CD 09 4F 64 46 75 5F 90 8E B0 71 87 86 87 86 82 
HI HI AE C7 88 55 00 D4 45 CD 09 4F 6C 45 75 5F 90 8E B0 6F 87 86 87 86 82 
HI HI AE C7 88 55 00 D4 45 CD 09 4F 74 47 74 5F 90 8E B0 69 87 85 87 86 82 

AS27317C  27Feb2002
20:08-20:19(JST)
AOS   MEL  LOS  Elev
357   291  225  27.1
Freq. 435.799-.786MHz  

HI HI AE C7 88 55 00 D4 4E D8 09 53 9C 3E 58 5E 8F 8D B0 64 87 84 84 85 80 
HI HI AE C7 88 55 00 D4 4E D8 09 53 9E 44 55 5F 8F 8D AD 63 88 85 84 86 80 
HI HI AE C7 88 55 00 D4 4E D8 09 53 A3 4C 4D 62 8F 8D A6 62 88 84 84 86 80 
HI HI AE C7 88 55 00 D4 4E D8 09 53 A6 56 4D 62 8E 8C A4 68 88 84 84 86 80 
HI HI AE C7 88 55 00 D4 4E D8 09 53 A8 60 45 66 8D 8B 9C 87 88 84 84 86 80 
HI HI AE 07 88 55 00 D4 4E D8 09 53 A8 6B 47 66 8C 8A 97 75 88 85 84 86 80 
HI HI AE 07 88 55 00 D4 4E D8 09 53 A5 75 45 64 8C 8A 96 7F 88 85 84 86 80 
HI HI AE 07 88 55 00 D4 4E D8 09 53 A2 7D 4A 61 8B 8A 96 77 88 85 84 86 80 
HI HI AE 07 88 55 00 D4 4E D8 09 53 9E 84 51 5F 8B 0A 96 79 88 85 85 86 80 
HI HI AE 07 88 55 00 D4 4E D8 09 53 9B 89 59 5A 8C 8A 97 7A 88 85 85 86 80 
HI HI AE 07 88 55 00 D4 4E D8 09 53 97 8C 5F 58 8D 8B 98 6B 88 85 85 86 80 
HI HI AE 07 88 55 00 D4 4E D8 09 53 95 8E 64 56 8F 8D 9E B6 88 85 85 86 80 
HI HI AE 07 88 55 00 D4 4E D8 09 53 93 8D 63 5F 90 8E B0 73 88 85 85 86 80 
HI HI AE C7 88 55 00 D4 4E D8 09 53 92 8D 64 5F 90 8E B0 6D 88 85 85 86 80 
HI HI AE C7 88 55 00 D4 4E D8 09 53 90 8C 68 5F 90 8E B0 5A 88 85 85 86 80 
HI HI AE C7 88 55 00 D4 4E D8 09 53 8F 8C 6F 5F 90 8E B0 98 88 85 85 86 81 
HI HI AE C7 88 55 00 D4 4E D8 09 53 8E 8D 

AS27303C  26Feb2002
19:17-19:30(JST)
AOS   MEL  LOS  Elev
  9   287  201  71.5
Freq. 435.802-.785MHz  

HI HI AE C7 88 55 00 D4 54 F5 09 58 93 82 62 5F 90 8E B0 6B 87 89 87 84 82 
HI HI AE C7 88 55 00 D4 54 F5 09 58 8F 89 5B 5F 90 8E B0 69 87 89 87 84 82 
HI HI AE C7 88 55 00 D4 54 F5 09 58 8B 8E 5D 5F 8F 8E B0 70 87 89 87 84 82 
HI HI AE C7 88 55 00 D4 54 F5 09 58 86 90 66 5E 90 8E B0 8D 87 89 87 84 82 
HI HI AE C7 88 55 00 D4 54 F5 09 58 81 90 6E 5F 90 8E B0 A9 87 89 87 84 82 
HI HI AE C7 88 55 00 D4 54 F5 09 58 7C 8E 71 5F 90 8E B0 72 87 89 87 84 82 
HI HI AE C7 88 55 00 D4 54 F5 09 58 7A 8A 71 5F 90 8E B0 6E 87 89 87 84 82 
HI HI AE C7 88 55 00 E4 54 F5 09 58 78 86 73 5F 90 8E B0 7F 87 89 87 84 82 
HI HI AE C7 88 55 00 D4 54 F5 09 58 78 80 75 5F 90 8E B0 76 87 88 87 84 82 
HI HI AE C7 88 55 00 D4 54 F5 09 58 7A 7A 74 5F 90 8E B0 66 87 88 87 84 82 
HI HI AE C7 88 55 00 D4 54 F5 09 58 7C 75 74 5F 8F 8E B0 69 87 88 87 84 82 
HI HI AE C7 88 55 00 D4 54 F5 09 58 80 71 71 5F 8F 8D B0 69 87 88 87 84 82 
HI HI AE C7 88 55 00 D4 54 F5 09 58 85 6E 69 5F 90 8E B0 76 87 88 87 84 82 
HI HI AE C7 88 55 00 D4 54 F5 09 58 89 6C 64 5F 8F 8E B0 B8 87 88 87 84 82 
HI HI AE C7 88 55 00 D4 54 F5 09 58 8E 6C 5E 5F 90 8E B0 6B 87 88 87 84 82 
HI HI AE C7 88 55 00 D4 54 F5 09 58 92 6D 5D 5F 90 8E B0 8C 87 88 87 84 82 
HI HI AE C7 88 55 00 D4 54 F5 09 58 94 6F 57 5F 90 8D B0 7E 87 89 86 84 82 
HI HI AE C7 88 55 00 D4 54 F5 09 58 96 73 53 60 8F 8D AD 75 88 88 86 84 82 

AS27289C  25Feb2002
18:29-18:39(JST)
AOS   MEL  LOS  Elev
 22   100  177  43.2
Freq. 435.796-.785MHz  

HI HI AE C7 88 55 00 D4 E3 8D 09 42 85 89 52 5F 8E 8C 99 7A 87 84 8A 8B 83 
HI HI AE C7 88 55 00 D4 E3 8D 09 42 82 88 52 5E 8E 8C 99 71 87 84 8A 8B 83 
HI HI AE 07 88 55 00 D4 E3 8D 09 42 7A 87 56 5D 8F 8C 99 4E 87 84 8A 8B 83 
HI HI AE 07 88 55 00 D4 E3 8D 09 42 73 83 59 5A 8F 8D 9A 76 87 84 8A 8B 83 
HI HI AE 07 88 55 00 D4 E3 8D 09 42 6D 7A 5B 5E 90 8E B0 5D 87 85 8B 8B 83 
HI HI AE C7 88 55 00 D4 E3 8D 09 42 6A 72 5E 5F 90 8E B0 66 87 85 8B 8B 83 
HI HI AE C7 88 55 00 D4 E3 8D 09 42 69 67 5F 5F 90 8E B0 61 88 85 8B 8B 83 
HI HI AE C7 88 55 00 D4 E3 8D 09 42 6B 5D 65 5F 91 8E B0 4D 88 85 8B 8B 83 
HI HI AE C7 88 55 00 D4 E3 8D 09 42 70 54 6D 5F 91 8E B0 65 87 85 8B 8B 83 
HI HI AE C7 88 55 00 D4 E3 8D 09 42 76 4D 72 5F 91 8E B0 86 88 85 8B 8B 83 
HI HI AE C7 88 55 00 D4 E3 8D 09 42 7E 4A 74 5F 91 8E B0 88 88 85 8B 8B 84 
HI HI AE C7 88 55 00 D4 E3 8D 09 42 85 4A 73 5F 91 8E B0 72 87 85 8B 8B 83 
HI HI AE C7 88 55 00 D5 E3 8D 09 42 8C 4E 6E 5F 91 8E B0 61 87 85 8B 8C 83 
HI HI AE C7 88 55 00 D4 E3 8D 09 42 92 56 65 5F 91 8E AF 6F 87 85 8B 8B 83 
HI HI AE C7 88 55 00 D4 E3 8D 09 42 94 60 5D 5F 9I 8E 
 
------------------------ FO-29の軌道要素 ------------------------------        
 
  ■ 軌道要素1:「jamsat−keps:1080」より         
          SB KEPS @ AMSAT  $ORB02059.N
          2Line Orbital Elements 02059.AMSAT

HR AMSAT ORBITAL ELEMENTS FOR AMATEUR SATELLITES IN NASA FORMAT
FROM WA5QGD FORT WORTH,TX February 28, 2002
SEND SUBSCRIBE/UNSUBSCRIBE TO majordomo@amsat.org ONLY
BID: ORB02059.N

 DECODE 2-LINE ELSETS WITH THE FOLLOWING KEY:
 1 AAAAAU 00  0  0 BBBBB.BBBBBBBB  .CCCCCCCC  00000-0  00000-0 0  DDDZ
 2 AAAAA EEE.EEEE FFF.FFFF GGGGGGG HHH.HHHH III.IIII JJ.JJJJJJJJKKKKKZ
 KEY: A-CATALOGNUM B-EPOCHTIME C-DECAY D-ELSETNUM E-INCLINATION F-RAAN
 G-ECCENTRICITY H-ARGPERIGEE I-MNANOM J-MNMOTION K-ORBITNUM Z-CHECKSUM

FO-29
1 24278U 96046B   02058.95571933  .00000050  00000-0  84465-4 0 04884
2 24278 098.5135 254.0618 0351648 058.6917 304.8157 13.52826613273226

 ■ 軌道要素2:「jamsat−keps:1081」より
        SB KEPS @ AMSAT  $ORB02059.O
        Orbital Elements  02059.OSCAR

HR AMSAT ORBITAL ELEMENTS FOR OSCAR SATELLITES
FROM WA5QGD FORT WORTH,TX February 28, 2002
SEND SUBSCRIBE/UNSUBSCRIBE TO majordomo@amsat.org ONLY
BID: ORB02059.O
TO ALL RADIO AMATEURS BT

Satellite: FO-29
Catalog number: 24278
Epoch time:      02058.95571933
Element set:    0488
Inclination:      098.5135 deg
RA of node:       254.0618 deg
Eccentricity:    0.0351648
Arg of perigee:   058.6917 deg
Mean anomaly:     304.8157 deg
Mean motion:   13.52826613 rev/day
Decay rate:        5.0e-07 rev/day^2
Epoch rev:           27322
Checksum:              328

-------------------  FO-29(JAS-2)のテレメトリに関する情報  ---------------------- 
 
2)上記2002年3月1日(金)のテレメトリの最終行を分析しておきます.

AS27343C  01Mar2002
18:14-18:31(JST)
AOS   MEL  LOS  Elev
 23    99  174  38.9
Freq. 435.803-.785MHz 

HI HI AE C7 88 55 00 D4 B2 96 09 08 7E 93 74 5E 8F 8D B0 51 86 81 85 89 80
 
